Change the Weather History Date:

Wednesday, December 5, 2012

  Actual Average (KRXE) Record (KRXE)
Temperature  
Mean Temperature 36 °F 22 °F  
Max Temperature 38 °F 31 °F 46 °F (2012)
Min Temperature 34 °F 14 °F -16 °F (2013)
Degree Days  
Heating Degree Days 29 43  
Month to date heating degree days 210  
Since 1 July heating degree days 2222  
Cooling Degree Days 0 0  
Month to date cooling degree days 0  
Year to date cooling degree days 208  
Moisture  
Dew Point 34 °F    
Average Humidity 88    
Maximum Humidity 93    
Minimum Humidity 76    
Precipitation  
Precipitation 0.10 in 0.03 in 0.30 in (1983)
Month to date precipitation 0.14  
Year to date precipitation 12.17  
Sea Level Pressure  
Sea Level Pressure 30.03 in    
Wind  
Wind Speed 9 mph (South)    
Max Wind Speed 18 mph    
Max Gust Speed -    
Visibility 10 miles    
Events Rain    
T = Trace of Precipitation, MM = Missing Value Source: NWS Daily Summary

Daily Weather History Graph

Daily Weather History Graph

Search for Another Location

Airport or City:

Trip Planner

Search our weather history database for the weather conditions in past years. The results will help you decide how hot, cold, wet, or windy it might be!

Date:

Astronomy

Dec. 05, 2012 Rise Set
Actual Time 7:43 AM MST 4:47 PM MST
Civil Twilight 7:10 AM MST 5:19 PM MST
Nautical Twilight 6:34 AM MST 5:55 PM MST
Astronomical Twilight 5:59 AM MST 6:30 PM MST
Moon 11:50 PM MST (12/5) 11:59 AM MST (12/5)
Length of Visible Light 10h 09m
Length of Day
9h 04m
Waning Gibbous, 59% of the Moon is Illuminated
Dec 5
Waning Gibbous
Dec 6
Last Quarter
Dec 13
New
Dec 19
First Quarter
Dec 28
Full

Hourly Weather History & Observations

Time (MST) Temp. Windchill Dew Point Humidity Pressure Visibility Wind Dir Wind Speed Gust Speed Precip Events Conditions
12:06 AM 35.6 °F - 33.8 °F 93% 30.16 in 10.0 mi Calm Calm - 0.00 in   Overcast
12:56 AM 36.9 °F 29.1 °F 34.9 °F 93% 30.10 in 10.0 mi South 11.5 mph - 0.00 in   Overcast
1:21 AM 37.4 °F 29.8 °F 35.6 °F 93% 30.13 in 7.0 mi SSW 11.5 mph - 0.01 in Rain Light Rain
1:56 AM 37.9 °F 30.5 °F 34.9 °F 89% 30.08 in 10.0 mi South 11.5 mph - 0.02 in Rain Light Rain
2:06 AM 37.4 °F 29.3 °F 35.6 °F 93% 30.13 in 10.0 mi South 12.7 mph - 0.00 in   Mostly Cloudy
2:56 AM 37.9 °F 30.5 °F 34.9 °F 89% 30.08 in 6.0 mi South 11.5 mph - 0.01 in   Overcast
3:48 AM 37.4 °F 32.1 °F 35.6 °F 93% 30.11 in 9.0 mi SSW 6.9 mph - 0.00 in   Mostly Cloudy
3:56 AM 36.9 °F 32.2 °F 34.9 °F 93% 30.06 in 10.0 mi SSW 5.8 mph - 0.00 in   Mostly Cloudy
4:12 AM 35.6 °F 31.7 °F 33.8 °F 93% 30.10 in 10.0 mi ESE 4.6 mph - 0.00 in   Overcast
4:56 AM 34.9 °F 29.0 °F 32.9 °F 92% 30.04 in 10.0 mi ENE 6.9 mph - 0.00 in   Overcast
5:56 AM 36.9 °F 30.7 °F 34.9 °F 93% 30.00 in 10.0 mi SSE 8.1 mph - 0.01 in   Overcast
7:56 AM 36.9 °F 33.1 °F 34.9 °F 93% 29.99 in 10.0 mi SSE 4.6 mph - 0.02 in   Overcast
8:30 AM 37.4 °F 33.8 °F 35.6 °F 93% 30.04 in 10.0 mi SE 4.6 mph - 0.00 in   Overcast
8:56 AM 37.9 °F 30.9 °F 36.0 °F 93% 29.98 in 10.0 mi SSW 10.4 mph - 0.00 in Rain Light Rain
9:56 AM 37.9 °F 29.6 °F 34.9 °F 89% 29.97 in 10.0 mi South 13.8 mph - 0.02 in Rain Light Rain
10:33 AM 37.4 °F 29.3 °F 35.6 °F 93% 30.03 in 10.0 mi South 12.7 mph - 0.01 in   Overcast
10:56 AM 37.9 °F 29.2 °F 34.9 °F 89% 29.97 in 10.0 mi South 15.0 mph - 0.01 in   Mostly Cloudy
11:26 AM 37.4 °F 27.5 °F 35.6 °F 93% 30.03 in 10.0 mi South 18.4 mph - N/A   Overcast
11:56 AM 37.9 °F 28.9 °F 34.9 °F 89% 29.96 in 10.0 mi South 16.1 mph - N/A   Overcast
12:56 PM 36.9 °F 27.1 °F 34.9 °F 93% 29.95 in 10.0 mi South 17.3 mph - 0.00 in   Overcast
1:56 PM 36.9 °F 28.2 °F 34.9 °F 93% 29.96 in 10.0 mi SSE 13.8 mph - 0.00 in   Overcast
2:56 PM 38.8 °F 30.4 °F 36.0 °F 89% 29.95 in 10.0 mi South 15.0 mph - 0.00 in Rain Light Rain
3:56 PM 38.8 °F 30.8 °F 34.9 °F 86% 29.96 in 10.0 mi SSW 13.8 mph - 0.00 in   Mostly Cloudy
4:56 PM 38.8 °F 30.0 °F 34.0 °F 83% 29.99 in 10.0 mi SSE 16.1 mph - N/A   Overcast
5:56 PM 38.8 °F 31.2 °F 32.9 °F 79% 29.99 in 10.0 mi South 12.7 mph - N/A   Overcast
6:56 PM 38.8 °F 32.1 °F 32.0 °F 76% 29.99 in 10.0 mi South 10.4 mph - 0.01 in   Overcast
7:56 PM 37.9 °F 30.5 °F 32.0 °F 79% 30.00 in 10.0 mi South 11.5 mph - N/A   Overcast
8:56 PM 36.9 °F 30.1 °F 31.1 °F 80% 30.00 in 10.0 mi South 9.2 mph - N/A   Overcast
9:56 PM 36.9 °F 29.6 °F 31.1 °F 80% 30.01 in 10.0 mi South 10.4 mph - N/A   Mostly Cloudy
10:56 PM 36.0 °F 28.5 °F 30.0 °F 79% 30.01 in 10.0 mi SSE 10.4 mph - N/A   Mostly Cloudy
11:56 PM 34.9 °F 27.1 °F 29.1 °F 79% 30.01 in 10.0 mi SSE 10.4 mph - N/A   Scattered Clouds